Погода в Глазове

Погода в Глазове : погода сейчас, прогноз погоды и архив. Всё, что Вы хотите узнать о погоде в Глазове!

Хотите узнать прогноз погоды в Глазове? Тогда Вам сюда: Погода в Глазове

Поиск расширенной информации на нашем сайте:

Другие новости

Новости СМИ2

Главная страница сайта

Новости сайта

03.07.2017

Напоминаем, что на нашем специализированном сайте Метеоцентр.Азия вы можете получить высокодетализированные автоматические прогнозы погоды по пунктам России, СНГ и мира в авиационном формате (включающие направление и скорость ветра, видимость, явления погоды, количество и форму облачности, нижнюю и верхнюю границу облачности).


Погода в Глазове - сегодня

Время (UTC), дата Ветер
(°,м/с) 
Видим.   Явления Облачность Т
(°С)
Тd
(°С)
f(%) Тe
(°С)
Pmin
(гПа)
dP
(гПа)
Po
(мм)
O2
(г/м3)
Тmin Tmax R s Состояние
почвы
03 17.10.17 тихо () -1{04}  4000 м  дымка  10/0 средняя 
[Ac As]
+6.7 +6 95 +7  1006.7  -0.8  740  290  +6.7    0.9    влажная 
06 17.10.17 160 (Ю) 1-3{03}  20000 м    10/0 средняя 
[Ac As]
+7.4 +6.3 93 +8  1005.6  -1.1  739  289  +6.5         
09 17.10.17 190 (Ю) 3-5{06}  20000 м    10/10 300 м кучево-дожд. 
[Cb cap]
+8.4 +7.1 92 +8  1003.5  -2  737  287           
12 17.10.17 200 (Ю) 3-6{07}  20000 м  слаб. ливневой дождь  10/10 600 м кучево-дожд. 
[Cb cap]
+8.3 +7.2 93 +8  1002.2  -1.3  736  287           
15 17.10.17 230 (ЮЗ) 3-3{06}  4000 м  {ливн. осадки}  10/10 600 м кучево-дожд. 
[Cb cap]
+6.2 +5.3 94 +5  1002.2  -0.1  736  289    +9  0.9     
18 17.10.17 260 (З) 4-7{10}  4000 м  {ливн. осадки}  10/10 600 м кучево-дожд. 
[Cb cap]
+4.1 +3.1 93 +2  1002.8  0.4  737  292           
21 17.10.17 250 (З) 4-5{07}  4000 м  {ливн. осадки}  3/3 600 м кучево-дожд. 
[Cb cap]
+2.6 +1.8 94 +1  1002.9  737  294           
00 18.10.17 240 (ЮЗ) 3-5{08}  4000 м  {ливн. осадки}  8/8 600 м кучево-дожд. 
[Cb cap]
+3 +2.2 94 +2  1002.6  -0.2  736  293           
03 18.10.17 240 (ЮЗ) 4-6{06}  4000 м    10/10 600 м кучево-дожд. 
[Cb cap]
+3.9 +3.2 95 +2  1002.6  736  292  +2.2      влажная 
06 18.10.17 250 (З) 4-7{07}  20000 м  {ливн. осадки}  8/8 600 м кучево-дожд. 
[Cb cap]
+5.3 +3.6 89 +4  1003.3  0.7  737  291           
09 18.10.17 220 (ЮЗ) 5-8{09}  20000 м  {ливн. осадки}  9/9 600 м кучево-дожд. 
[Cb cap]
+6.5 +3.4 81 +5  1002.2  -0.9  736  289           
12 18.10.17 200 (Ю) 4-7{08}  20000 м  {ливн. осадки}  10/10 600 м 
[Sc diur, vesp]
+5.7 +2.5 80 +4  1001.1  -1.2  735  290           
15 18.10.17 190 (Ю) 3-5{07}  4000 м  слаб. морось  10/10 300 м 
[St]
+5.5 +2.6 82 +4  999.9  -1.2  734  290    +6.7  0.0     
18 18.10.17 190 (Ю) 4-5{08}  4000 м  слаб. дождь{морось}  10/10 300 м 
[Frnb|Ns]
+4.7 +3 89 +3  998.1  -1.8  733  290           
21 18.10.17 180 (Ю) 4-5{06}  4000 м  слаб. дождь  10/10 300 м 
[Frnb|Ns]
+4.7 +3.5 92 +3  996.3  -1.7  732  289           
00 19.10.17 200 (Ю) 6-8{08}  4000 м  слаб. дождь  10/10 300 м 
[Frnb|Ns]
+5.6 +5.1 97 +3  994.2  -2  730  287           
03 19.10.17 190 (Ю) 6-9{11}  4000 м  слаб. дождь  10/10 300 м 
[Frnb|Ns]
+7.5 +6.9 96 +5  991.2  -2.8  728  284  +4.3    0.5    влажная 
06 19.10.17 260 (З) 8-11{11}  20000 м  в посл. час ливневой дождь  10/10 600 м кучево-дожд. 
[Cb cap]
+7.2 +5.6 90 +5  990.3  -0.9  728  285           
09 19.10.17 270 (З) 8-14{16}  20000 м  в посл. час ливневой дождь  10/10 600 м кучево-дожд. 
[Cb cap]
+4.7 +3 89 +1  993.5  2.9  730  289           
12 19.10.17 270 (З) 7-13{18}  20000 м  {ливн. осадки}  10/10 600 м кучево-дожд. 
[Cb cap]
+4 +1.7 85 +1  997  3.5  732  291           
15 19.10.17 300 (СЗ) 7-12{13}  4000 м    10/10 600 м кучево-дожд. 
[Cb cap]
+3.3 +1 85 999.7  2.5  734  292    +8.2     
18 19.10.17 290 (З) 5-10{13}  4000 м    10/10 600 м кучево-дожд. 
[Cb cap]
+2.8 +0.7 86 1001.4  1.6  735  293           
21 19.10.17 270 (З) 5-10{11}  4000 м  в посл. час ливневой дождь  10/10 600 м кучево-дожд. 
[Cb cap]
+2.4 +0.5 87 1002.1  0.7  736  294           
00 20.10.17 290 (З) 4-8{10}  4000 м  {ливн. осадки}  10/10 600 м кучево-дожд. 
[Cb cap]
+1.8 +0.2 89 1004  1.7  737  295           
03 20.10.17 280 (З) 3-7{09}  4000 м    10/10 600 м 
[Sc diur, vesp]
+1.3 +0.2 92 1005.6  1.6  738  296  +1    0.4    мокрая 
Время (UTC), дата Ветер
(°,м/с) 
Видим.   Явления Облачность Т
(°С)
Тd
(°С)
f(%) Тe
(°С)
Pmin
(гПа)
dP
(гПа)
Po
(мм)
O2
(г/м3)
Тmin Tmax R s Состояние
почвы

Для получения пояснительной информации подведите курсор к названию столбца.

ПОГОДА в Глазове - архив

Всё, что Вы хотите узнать о погоде в Глазове - удобно и подробно!

Выберите нужную дату (начиная с 1 января 2015* года) и нажмите кнопку "Найти".
Будут отображены архивные сводки погоды по пункту Глазов, начиная с указанной даты.


Отображать данные в формате CSV (для использования в таблицах Excel)


Внимание! Наш архив погоды предназначен исключительно для личного некоммерческого использования в познавательных целях. Если Вам необходимы официальные справки о состоянии погоды (для производственных, юридических, коммерческих и т.п. целей), обращайтесь в органы Росгидромета.

*Примечание: данная дата относится к архиву по метеостанциям СССР (Россия, СНГ, Балтия).
Архив по метеостанциям Зарубежной Европы и Азии (кроме Китая) хранится 10 дней, по другим регионам земного шара (Китай, Африка, Америка, Австралия, Океания) - 1 день.

Глазов - район местоположения метеостанции


Название, широта, долгота, высота метеостанции:
Глазов 58.1°ш. 52.6°д. 169 м над ур. моря [Российская Федерация]

Дополнительная информация

В oтличие oт бoльшинства пoгoдных сайтoв мы публикуем пoдрoбную метеoинфoрмацию в детальнoм прoфессиoнальнoм фoрмате.

Характеристики температуры и влажнoсти вoздуха измеряются на высoте 2 м в тени вдали oт зданий и деревьев.
Скoрoсть ветра измеряется на высoте 10 м (на урoвне рoста челoвека скoрoсть ветра ниже в 1.5-2 раза). Если метеoстанция нахoдится в гoрoде или в лесу, тo скoрoсть ветра занижена на 2-4 м/с пo сравнению с oткрытым местoм. Скoрoсть ветра над акватoриями крупных рек и oзёр, а также на вершинах хoлмoв на 2-5 м/с выше, чем в oбычных услoвиях.
Атмoсфернoе давление в разных тoчках местнoсти мoжет значительнo oтличаться oт давления на метеoстанции, в зависимoсти oт услoвий рельефа (при пoдъёме на 10 м давление пoнижается примернo на 1 мм рт.ст.).